Location: Port Stanley
(42.6641°N, 81.2156°W)
Time: 02:35:12
(UTC-04:00)

ISS - Visible Passes

Search period start: 27 May 2020 00:00
Search period end: 06 June 2020 00:00
Orbit: 417 x 420 km, 51.6° (Epoch: 27 May)

Date Brightness Start Highest point End Pass type
(mag) Time Alt. Az. Time Alt. Az. Time Alt. Az.
27 May -2.2 22:35:19 10° NW 22:38:22 31° NNE 22:40:33 16° ENE visible
28 May -1.7 00:12:00 10° WNW 00:13:28 23° WNW 00:13:28 23° WNW visible
28 May -1.8 21:47:34 10° NW 21:50:24 24° NNE 21:53:13 10° ENE visible
28 May -3.7 23:24:07 10° WNW 23:27:16 74° W 23:27:16 74° W visible
29 May -3.5 22:36:18 10° NW 22:39:39 63° NNE 22:41:06 30° ESE visible
30 May -0.9 00:13:50 10° W 00:14:01 11° W 00:14:01 11° W visible
30 May -2.8 21:48:31 10° NW 21:51:45 42° NNE 21:54:57 10° E visible
30 May -2.2 23:25:30 10° WNW 23:27:53 26° WSW 23:27:53 26° WSW visible
31 May -3.3 22:37:26 10° WNW 22:40:41 48° SW 22:41:46 33° SSE visible
01 Jun -3.8 21:49:30 10° WNW 21:52:52 82° SW 21:55:42 14° SE visible
02 Jun -1.7 22:39:09 10° W 22:41:28 17° SW 22:42:36 15° SSW visible
03 Jun -2.3 21:50:47 10° WNW 21:53:44 29° SW 21:56:38 10° SSE visible
05 Jun -1.0 21:53:36 10° WSW 21:54:21 11° SW 21:55:06 10° SW visible
